Regional Weather Roundup
Issued by NWS

Home | Current Version | Previous Version | Text Only | Print | Product List | Glossary On
Versions: 1 2 3 4 5 6 7 8 9 10 11 12 13 14 15 16 17 18 19 20 21 22 23 24 25 26 27 28 29 30 31 32 33 34 35 36 37 38 39 40 41 42 43 44 45 46 47 48 49 50
000
ASUS43 KTOP 031359
RWRKS

WEATHER ROUNDUP FOR KANSAS
NATIONAL WEATHER SERVICE GOODLAND KS
900 AM CDT THU SEP 03 2015

NOTE:  "FAIR" INDICATES FEW OR NO CLOUDS BELOW 12,000 FEET WITH NO
SIGNIFICANT WEATHER AND/OR OBSTRUCTIONS TO VISIBILITY.

KSZ001>006-013>018-027>032-041>047-031500-
NORTHWEST KANSAS

CITY           SKY/WX    TMP DP  RH WIND       PRES   REMARKS
GOODLAND       SUNNY     72  50  45 W6        29.89R
HAYS           SUNNY     79  55  44 S14G20    29.87S
HILL CITY      SUNNY     76  59  55 S8        29.85S
RUSSELL        SUNNY     79  60  52 S20G26    29.85S
$$

KSZ061>065-074>080-084>089-031500-
SOUTHWEST KANSAS

CITY           SKY/WX    TMP DP  RH WIND       PRES   REMARKS
DODGE CITY     SUNNY     74  56  53 S20G26    29.91S
ELKHART          N/A     70  53  54 SW8         N/A
GARDEN CITY    SUNNY     71  57  61 S10       29.89S
GREAT BEND     SUNNY     77  59  53 S21G26    29.88F
LIBERAL        SUNNY     73  55  53 S18       29.92S
$$

KSZ066>073-081>083-090>101-031500-
SOUTHEAST KANSAS

CITY           SKY/WX    TMP DP  RH WIND       PRES   REMARKS
CHANUTE        SUNNY     76  69  79 S12       29.99S
COFFEYVILLE    SUNNY     75  69  81 S9        30.00R
HUTCHINSON     MOSUNNY   78  62  57 S16       29.93S
NEWTON         SUNNY     77  61  57 S17       29.97S
PARSONS        SUNNY     75  69  81 S7        30.01R
WICHITA INTL   PTSUNNY   77  64  64 S14       29.95S
WICHITA JABRA  MOSUNNY   76  64  66 S15G22    29.95S
WICHITA MCCONL SUNNY     76  61  59 S15       29.96R
WINFIELD       SUNNY     79  65  62 S14G22    29.98S
$$

KSZ007>012-019>026-033>040-048>060-102>105-031500-
NORTHEAST KANSAS

CITY           SKY/WX    TMP DP  RH WIND       PRES   REMARKS
CONCORDIA      MOSUNNY   77  62  59 S22G30    29.86S
EMPORIA        MOSUNNY   76  66  71 S12       29.96R
LAWRENCE       MOSUNNY   78  68  71 S7        29.96R
MANHATTAN      MOSUNNY   79  65  62 S9        29.91R
OLATHE IND     SUNNY     77  68  73 S12       29.97S
OLATHE EXE     SUNNY     76  67  73 S9        29.97S
SALINA         MOSUNNY   80  62  54 S18G30    29.88S
TOPEKA BILLARD MOSUNNY   78  67  68 S7        29.95R
TOPEKA FORBES  MOSUNNY   78  67  68 S13G18    29.95R
$$



USA.gov is the U.S. government's official web portal to all federal, state and local government web resources and services.